Danville, IL

9:18 AM CDT on March 25, 2017 (GMT -0500)
Vermilion County

Weather History for KDNV - February, 2014

Change the Weather History Date:

Saturday, February 1, 2014

  Actual Average (KCMI) Record (KCMI)
Temperature  
Mean Temperature 32 °F -  
Max Temperature 37 °F 33 °F 54 °F (2012)
Min Temperature 27 °F 18 °F 4 °F (2013)
Degree Days  
Heating Degree Days 33    
Moisture  
Dew Point 31 °F    
Average Humidity 96    
Maximum Humidity 100    
Minimum Humidity 90    
Precipitation  
Precipitation 0.80 in - - ()
Sea Level Pressure  
Sea Level Pressure 29.88 in    
Wind  
Wind Speed 7 mph (NE)    
Max Wind Speed 15 mph    
Max Gust Speed 18 mph    
Visibility 4 miles    
Events Rain , Snow    
Averages and records for this station are not official NWS values.
T = Trace of Precipitation, MM = Missing Value Source: NWS Daily Summary

Daily Weather History Graph

Daily Weather History Graph

Search for Another Location

Airport or City:

Trip Planner

Search our weather history database for the weather conditions in past years. The results will help you decide how hot, cold, wet, or windy it might be!

Date:

Astronomy

Feb. 01, 2014 Rise Set
Actual Time 6:59 AM CST 5:09 PM CST
Civil Twilight 6:30 AM CST 5:37 PM CST
Nautical Twilight 5:58 AM CST 6:10 PM CST
Astronomical Twilight 5:26 AM CST 6:42 PM CST
Moon 7:48 AM CST (2/1) 7:44 PM CST (2/1)
Length of Visible Light 11h 07m
Length of Day
10h 09m
Waxing Crescent, 5% of the Moon is Illuminated
Feb 1
Waxing Crescent
Feb 6
First Quarter
Feb 14
Full
Feb 22
Last Quarter
Mar 1
New

Hourly Weather History & Observations

Time (CST) Temp. Windchill Dew Point Humidity Pressure Visibility Wind Dir Wind Speed Gust Speed Precip Events Conditions
12:15 AM 27.0 °F 20.5 °F 25.2 °F 93% 30.00 in 4.0 mi ENE 5.8 mph - N/A   Overcast
12:35 AM 27.1 °F 21.8 °F 25.3 °F 93% 29.99 in 4.0 mi ENE 4.6 mph - N/A   Overcast
12:55 AM 27.5 °F 22.2 °F 25.7 °F 93% 29.98 in 4.0 mi East 4.6 mph - N/A   Overcast
1:15 AM 28.4 °F 23.3 °F 26.2 °F 92% 29.98 in 5.0 mi East 4.6 mph - N/A   Overcast
1:35 AM 29.1 °F 23.0 °F 26.6 °F 90% 29.97 in 5.0 mi East 5.8 mph - N/A   Overcast
1:55 AM 29.1 °F 22.1 °F 26.8 °F 91% 29.96 in 5.0 mi East 6.9 mph - N/A   Overcast
2:15 AM 29.3 °F 22.3 °F 27.3 °F 92% 29.96 in 5.0 mi East 6.9 mph - N/A   Overcast
2:35 AM 29.7 °F 23.7 °F 27.5 °F 92% 29.95 in 5.0 mi East 5.8 mph - N/A   Overcast
2:55 AM 29.8 °F 23.0 °F 27.9 °F 92% 29.94 in 5.0 mi East 6.9 mph - N/A   Overcast
3:15 AM 30.0 °F 25.2 °F 28.2 °F 93% 29.94 in 5.0 mi East 4.6 mph - N/A   Overcast
3:35 AM 30.2 °F 23.4 °F 28.8 °F 94% 29.93 in 4.0 mi East 6.9 mph - N/A   Light Freezing Rain
3:55 AM 30.2 °F 23.4 °F 28.9 °F 95% 29.91 in 4.0 mi East 6.9 mph - N/A   Overcast
4:15 AM 30.6 °F 23.8 °F 29.7 °F 96% 29.90 in 2.5 mi East 6.9 mph - N/A Rain Light Freezing Rain
4:35 AM 30.9 °F 22.8 °F 30.2 °F 97% 29.89 in 1.8 mi ESE 9.2 mph - N/A Rain Light Freezing Rain
4:55 AM 31.1 °F 23.1 °F 30.6 °F 98% 29.88 in 2.0 mi ESE 9.2 mph - N/A Rain Light Freezing Rain
5:15 AM 31.5 °F 24.9 °F 31.1 °F 99% 29.88 in 2.0 mi ESE 6.9 mph - N/A Rain Light Freezing Rain
5:35 AM 31.6 °F 26.0 °F 31.1 °F 98% 29.87 in 1.8 mi East 5.8 mph - N/A Rain Light Freezing Rain
5:55 AM 31.8 °F 26.2 °F 31.5 °F 99% 29.86 in 2.0 mi ESE 5.8 mph - 0.01 in Rain Light Freezing Rain
6:15 AM 32.0 °F 26.4 °F 31.6 °F 99% 29.85 in 1.8 mi East 5.8 mph - N/A Rain Light Rain
6:35 AM 32.0 °F 26.4 °F 31.8 °F 99% 29.85 in 1.8 mi ESE 5.8 mph - N/A   Drizzle
6:55 AM 32.0 °F 26.4 °F 32.0 °F 100% 29.83 in 1.5 mi East 5.8 mph - N/A Rain Light Rain
7:15 AM 32.0 °F 26.4 °F 32.0 °F 100% 29.81 in 1.5 mi ENE 5.8 mph - N/A Rain Light Rain
7:35 AM 32.2 °F 27.7 °F 32.0 °F 99% 29.85 in 0.8 mi North 4.6 mph - 0.05 in Rain Light Rain
7:55 AM 32.2 °F 27.7 °F 32.0 °F 99% 29.87 in 0.8 mi NNW 4.6 mph - 0.17 in   Overcast
8:15 AM 32.0 °F - 32.0 °F 100% 29.86 in 0.5 mi Calm Calm - 0.11 in Rain Light Rain
8:35 AM 32.0 °F 25.6 °F 32.0 °F 100% 29.83 in 0.5 mi East 6.9 mph - 0.19 in Rain Light Rain
8:55 AM 32.4 °F 27.9 °F 32.2 °F 99% 29.83 in 0.8 mi East 4.6 mph - 0.26 in Rain Rain
9:15 AM 32.5 °F 27.1 °F 32.4 °F 99% 29.81 in 0.8 mi East 5.8 mph - N/A Rain Light Rain
9:35 AM 32.9 °F 25.9 °F 32.9 °F 100% 29.80 in 1.2 mi ESE 8.1 mph - N/A Rain Light Rain
9:55 AM 33.8 °F 27.0 °F 33.6 °F 99% 29.80 in 1.8 mi SE 8.1 mph - 0.01 in Rain Rain
10:15 AM 33.4 °F 27.3 °F 33.3 °F 99% 29.80 in 1.0 mi SSE 6.9 mph - 0.04 in Rain Rain
10:35 AM 33.6 °F 28.4 °F 33.3 °F 99% 29.80 in 1.0 mi SSE 5.8 mph - 0.06 in Rain Rain
10:55 AM 33.8 °F 30.8 °F 33.6 °F 99% 29.80 in 0.8 mi SSE 3.5 mph - 0.08 in Rain Rain
11:15 AM 34.7 °F 31.8 °F 34.3 °F 99% 29.79 in 1.0 mi SSE 3.5 mph - 0.02 in Rain Rain
11:35 AM 35.6 °F 29.2 °F 35.4 °F 99% 29.79 in 1.5 mi South 8.1 mph - 0.03 in Rain Rain
11:55 AM 36.5 °F 30.3 °F 36.5 °F 100% 29.78 in 1.8 mi SSW 8.1 mph - 0.03 in Rain Rain
12:15 PM 37.0 °F 31.6 °F 36.9 °F 99% 29.77 in 1.5 mi SSW 6.9 mph - 0.02 in Rain Heavy Rain
12:35 PM 37.8 °F 31.8 °F 37.4 °F 99% 29.76 in 2.0 mi SSW 8.1 mph - 0.05 in Rain Rain
12:55 PM 37.6 °F 32.3 °F 37.4 °F 99% 29.75 in 1.8 mi SW 6.9 mph - 0.07 in Rain Light Rain
1:15 PM 37.6 °F 31.6 °F 37.4 °F 99% 29.76 in 1.2 mi SW 8.1 mph - N/A Rain Light Rain
1:35 PM 37.6 °F 31.0 °F 37.4 °F 99% 29.78 in 1.2 mi WSW 9.2 mph - N/A Rain Light Rain
1:55 PM 37.8 °F 31.8 °F 37.6 °F 99% 29.77 in 1.2 mi WSW 8.1 mph - N/A Rain Rain
2:15 PM 37.6 °F 31.6 °F 37.4 °F 99% 29.78 in 2.0 mi WSW 8.1 mph - 0.02 in Rain Rain
2:35 PM 37.0 °F 29.8 °F 36.7 °F 99% 29.78 in 3.0 mi West 10.4 mph - 0.05 in Rain Rain
2:55 PM 36.5 °F 31.0 °F 36.1 °F 99% 29.80 in 4.0 mi WNW 6.9 mph - 0.07 in Rain Rain
3:15 PM 34.5 °F 27.9 °F 34.0 °F 98% 29.80 in 4.0 mi NW 8.1 mph - 0.02 in Rain Rain
3:35 PM 32.9 °F 26.7 °F 32.4 °F 98% 29.82 in 4.0 mi NW 6.9 mph - 0.03 in Rain Rain
3:55 PM 32.5 °F 27.1 °F 32.0 °F 98% 29.83 in 5.0 mi NNW 5.8 mph - 0.04 in Rain Rain
4:15 PM 32.0 °F 26.4 °F 32.0 °F 100% 29.84 in 4.0 mi NW 5.8 mph - 0.01 in Rain Rain
4:35 PM 32.0 °F 25.6 °F 31.5 °F 98% 29.85 in 2.5 mi NNW 6.9 mph - 0.03 in Rain Rain
4:55 PM 32.0 °F 24.8 °F 31.1 °F 96% 29.86 in 1.8 mi NW 8.1 mph - 0.03 in Rain Light Rain
5:15 PM 32.0 °F 25.6 °F 31.1 °F 96% 29.87 in 3.0 mi NNW 6.9 mph - N/A Rain Rain
5:35 PM 31.8 °F 26.2 °F 31.1 °F 97% 29.89 in 2.5 mi NW 5.8 mph - 0.01 in Rain Light Freezing Rain
5:55 PM 32.0 °F 25.6 °F 31.1 °F 96% 29.90 in 3.0 mi NNW 6.9 mph - 0.02 in Rain Rain
6:15 PM 32.0 °F 24.8 °F 31.1 °F 96% 29.91 in 3.0 mi NNW 8.1 mph - N/A Rain Light Rain
6:35 PM 32.0 °F 24.2 °F 31.1 °F 96% 29.92 in 2.0 mi NNW 9.2 mph - N/A Snow Light Snow
6:55 PM 32.0 °F 24.8 °F 31.1 °F 96% 29.92 in 2.5 mi North 8.1 mph - 0.01 in Snow Light Snow
7:15 PM 31.8 °F 24.6 °F 30.7 °F 96% 29.93 in 3.0 mi North 8.1 mph - N/A Snow Light Snow
7:35 PM 31.8 °F 23.9 °F 30.6 °F 95% 29.95 in 4.0 mi North 9.2 mph - N/A   Overcast
7:55 PM 31.6 °F 22.6 °F 30.0 °F 94% 29.95 in 5.0 mi North 11.5 mph - N/A   Overcast
8:15 PM 31.6 °F 23.7 °F 29.7 °F 92% 29.96 in 10.0 mi North 9.2 mph - N/A   Overcast
8:35 PM 31.6 °F 21.2 °F 29.5 °F 92% 29.96 in 10.0 mi North 15.0 mph - N/A   Overcast
8:55 PM 31.5 °F 22.3 °F 29.1 °F 91% 29.97 in 10.0 mi North 11.5 mph - N/A   Overcast
9:15 PM 31.5 °F 22.9 °F 29.3 °F 92% 29.98 in 10.0 mi North 10.4 mph - N/A   Overcast
9:35 PM 31.1 °F 21.9 °F 29.1 °F 92% 29.98 in 10.0 mi North 11.5 mph - N/A   Overcast
9:55 PM 31.1 °F 20.9 °F 28.6 °F 90% 29.99 in 10.0 mi North 13.8 mph - N/A   Overcast
10:15 PM 30.9 °F 21.7 °F 28.9 °F 92% 29.99 in 7.0 mi North 11.5 mph - N/A   Overcast
10:35 PM 30.6 °F 20.2 °F 28.0 °F 90% 29.99 in 10.0 mi North 13.8 mph 18.4 mph N/A   Overcast
10:55 PM 30.2 °F 20.2 °F 28.2 °F 92% 30.00 in 10.0 mi North 12.7 mph - N/A   Overcast
11:15 PM 30.2 °F 21.9 °F 28.0 °F 92% 30.02 in 10.0 mi North 9.2 mph - N/A   Overcast
11:35 PM 30.2 °F 20.8 °F 28.2 °F 92% 30.02 in 10.0 mi North 11.5 mph - N/A   Overcast
11:55 PM 29.8 °F 19.3 °F 27.5 °F 91% 30.02 in 10.0 mi North 13.8 mph - N/A   Overcast